Вернуться в каталог

STARLINK-11223

АктивенСвязьVLEO
NORAD 60307·PAYLOAD·🇺🇸 United States

Запущен Jul 28, 2024 с Vandenberg Space Force Base

Loading…

Ближайшие Пролёты (ближайшие 24 часа)

TLE

СвежийSource: CelesTrak SupGP

Эпоха: Sep 14, 2026, 21:34 UTC

1 60307C 24133G   26257.89909722 -.00011823  00000+0 -97421-4 0  2577
2 60307  53.1571 293.3057 0001249  81.2221 293.6189 15.69706818    11

Отслеживайте STARLINK-11223 в реальном времени с AllMySat

Download on the App Store